Location: Cortada Guamacho
(10.5667°N, 67.0833°W)
Time: 03:36:38
(UTC+00:00)

Cosmos 2228 Rocket - Pass Details

Date: 04 July 2022
Orbit: 618 x 651 km, 82.5° (Epoch: 14 August)

Event Time Altitude Azimuth Distance (km) Brightness Sun altitude
Rises 09:21:20 0° 322° (NW) 2,920 6.4 -11.9°
Reaches altitude 10° 09:24:52 10° 293° (WNW) 2,021 5.3 -11.1°
Maximum altitude 09:26:41 12° 269° (W) 1,872 5.0 -10.7°
Enters shadow 09:26:54 12° 266° (W) 1,875 4.9 -10.7°
